Wind_Speed
8 10 12 14 16 19 21 22 24 26 28 29 30 30 30 31 31 32 32 32 33 33 34 35 35 35 35 35 36 38 39 40 41 43 44 45 45 46 46 46 47 46 47 48
5 6 9 11 12 14 16 19 21 23 25 26 27 27 28 28 28 29 29 30 30 30 31 33 34 34 34 34 36 37 38 39 41 42 43 44 45 46 47 47 47 47 47 48
3 3 6 7 9 11 13 14 17 19 21 22 23 24 24 25 25 26 27 28 29 29 30 31 32 33 34 34 35 35 36 38 39 41 42 43 44 45 46 47 48 49 48 48
1 2 3 4 5 6 8 11 13 15 17 19 20 21 21 22 23 24 25 27 27 28 28 29 31 32 33 33 34 34 35 37 38 39 40 41 43 44 45 47 48 49 50 50
2 1 2 3 4 4 6 7 9 12 14 17 18 19 19 21 21 22 23 24 25 26 27 28 29 30 31 33 34 34 34 35 36 37 38 40 41 43 45 46 47 48 49 50
3 2 1 1 3 4 5 5 6 9 11 14 15 17 17 18 19 20 21 22 23 23 24 26 28 30 31 31 33 33 33 34 34 34 36 37 38 40 41 43 44 46 47 48
6 4 2 1 0 2 3 4 4 6 8 10 12 14 14 14 15 17 17 19 19 20 22 24 26 27 29 30 30 31 32 32 32 33 33 34 35 36 37 39 40 42 43 45
6 5 4 2 1 1 2 3 3 5 6 8 10 12 12 12 13 14 15 16 17 18 20 21 23 24 25 27 28 28 29 30 30 31 32 33 33 34 34 35 36 38 39 41
7 5 5 3 2 1 1 2 4 5 6 7 9 10 11 12 12 13 14 15 16 17 18 19 20 21 22 23 25 26 26 27 28 29 30 30 31 32 32 32 33 34 36 36
8 7 6 4 3 2 2 4 5 6 7 7 7 8 9 10 11 12 13 14 15 15 16 17 18 19 20 20 21 22 23 24 24 25 26 27 27 28 28 29 30 31 31 32
8 7 6 5 5 4 4 5 6 8 8 9 8 7 8 10 10 11 11 12 12 13 14 15 16 17 18 18 18 18 19 20 20 21 22 22 24 24 25 26 26 26 27 28
8 7 7 6 6 6 6 6 7 8 9 9 9 8 9 10 10 9 10 11 11 12 13 13 13 14 15 15 15 15 15 16 17 19 19 20 22 22 22 23 23 24 25 25
9 8 8 7 7 7 7 7 8 9 8 9 9 8 8 9 8 9 9 10 11 11 11 11 12 12 12 12 11 11 11 11 13 14 15 17 18 18 19 20 21 21 22 23
10 9 9 9 9 9 8 8 9 9 9 9 9 8 7 8 8 9 9 9 10 11 11 11 11 11 10 9 9 8 8 8 9 9 10 12 14 15 16 17 18 18 19 21
11 10 10 10 10 10 9 9 10 11 11 11 9 8 7 8 8 9 10 10 10 10 11 11 11 10 8 7 6 7 7 7 7 8 9 10 11 12 13 14 15 17 18 20
13 12 11 11 11 10 10 10 12 12 12 12 11 9 9 9 9 9 10 10 9 9 9 10 9 8 6 6 5 5 5 6 6 6 7 8 9 10 11 11 12 13 15 17
14 13 12 11 11 11 11 11 12 12 12 12 11 10 10 10 10 9 9 9 9 9 8 7 7 6 6 5 5 4 4 4 5 6 7 8 9 9 10 11 13 14 15 16
15 14 14 13 13 12 12 12 11 11 11 11 11 10 10 10 10 10 10 10 10 9 8 7 6 6 6 6 6 6 6 7 7 7 8 8 9 9 10 11 13 15 16 18
17 17 16 16 15 14 13 13 12 12 11 12 11 12 12 11 11 12 11 10 9 9 7 7 6 7 7 7 7 7 9 9 9 9 10 10 10 11 12 14 15 16 18 19
20 20 19 19 19 17 16 16 15 14 13 13 13 13 13 12 12 12 12 11 10 9 8 7 8 8 8 8 9 9 10 10 11 11 12 12 12 13 14 15 16 17 18 20
22 22 22 22 21 20 19 19 18 17 16 16 15 15 14 13 12 12 12 11 11 10 10 10 10 10 10 9 9 10 11 11 12 13 14 14 15 15 16 17 18 19 20 21
25 25 24 24 24 22 23 22 22 21 19 19 18 17 15 14 13 13 13 13 13 13 13 13 13 13 12 12 12 12 13 14 14 15 16 16 17 17 19 20 21 22 23 25
27 27 27 26 24 25 26 26 25 25 23 21 21 20 18 17 16 16 16 16 16 16 16 15 15 15 15 15 15 15 16 16 17 17 18 18 19 20 21 22 23 24 25 27
30 29 29 28 25 27 28 28 28 28 26 25 24 23 22 20 20 19 19 19 19 18 18 18 17 17 18 18 18 18 19 19 20 20 20 21 21 22 23 24 25 26 27 29
32 33 32 31 29 31 31 31 31 31 30 28 27 26 25 24 23 23 22 21 21 21 20 20 20 20 21 21 21 21 22 22 22 22 22 22 23 24 25 26 28 30 31 32
34 35 34 33 33 35 33 34 33 33 31 31 30 29 28 27 26 26 25 25 24 24 24 23 23 23 24 24 25 25 24 24 24 23 23 24 25 26 28 29 31 32 34 35
Wind_Direction
207 215 219 223 228 232 233 233 233 234 236 238 239 240 242 244 245 247 250 252 252 252 252 253 253 253 254 256 257 258 259 258 257 257 256 255 254 253 252 252 252 252 252 252
184 206 214 220 229 233 235 235 236 237 238 238 239 241 243 244 246 248 249 250 250 251 252 253 253 254 256 257 259 261 260 259 259 258 257 256 255 253 252 252 252 252 251 251
189 206 214 220 229 233 236 237 236 237 237 239 240 240 243 245 247 248 249 250 252 253 254 255 255 256 258 260 261 262 261 260 259 258 256 256 255 254 253 252 251 251 251 251
121 171 200 213 223 226 231 235 237 237 235 235 238 242 243 246 248 250 251 252 254 255 255 256 257 259 261 262 263 264 263 261 260 259 257 256 255 254 253 253 252 252 252 252
55 92 173 208 222 229 233 235 238 239 238 237 239 244 245 247 251 252 253 254 256 257 257 257 258 261 262 263 264 264 264 262 261 259 258 257 255 254 253 253 253 253 252 253
50 66 111 203 228 234 233 237 240 243 243 240 240 246 246 247 249 252 256 257 258 259 259 259 261 263 264 265 264 264 264 262 260 258 258 257 256 255 254 253 253 253 253 253
50 53 60 53 295 251 240 243 253 254 249 246 247 249 251 252 252 254 257 260 261 262 263 264 265 265 265 267 266 265 263 263 260 258 257 256 256 256 255 254 253 254 254 255
48 49 53 63 61 296 250 249 261 268 265 257 254 258 257 257 258 255 257 263 265 267 267 269 269 268 268 269 269 267 265 263 261 259 258 257 256 255 255 255 255 256 256 256
36 38 33 38 35 2 255 268 278 285 285 278 270 265 263 263 264 263 264 266 269 271 272 273 272 271 272 272 271 269 268 265 264 262 261 259 256 256 256 255 255 255 256 255
32 30 27 18 3 339 298 285 282 290 294 292 289 282 275 269 269 270 270 272 274 277 281 279 277 277 276 275 273 272 269 267 264 263 261 259 257 256 254 254 256 257 256 256
18 17 14 4 352 332 308 297 290 291 297 297 295 301 293 285 278 278 277 276 277 280 283 284 282 282 281 279 277 274 269 266 263 261 259 258 256 255 256 257 258 259 259 258
355 354 352 346 339 329 321 310 302 300 300 299 300 302 302 296 291 287 282 279 281 283 287 290 289 289 288 285 282 276 270 267 266 263 260 259 258 257 257 259 260 260 259 257
338 338 335 333 329 322 317 310 306 303 301 301 302 303 302 298 297 294 290 286 285 288 291 291 294 297 297 293 288 282 275 271 269 266 261 260 258 257 257 258 261 262 260 257
323 323 320 319 316 313 310 306 303 302 302 302 303 301 296 295 298 300 297 293 290 289 291 293 295 302 303 294 288 283 282 280 273 270 269 262 259 257 258 260 263 264 263 261
314 313 310 306 304 302 302 302 301 301 302 300 300 297 292 293 298 299 298 298 293 289 289 290 293 300 304 299 292 289 288 285 279 275 273 271 265 260 260 265 268 268 267 268
315 309 304 300 297 298 298 297 297 300 300 300 298 293 291 295 296 298 298 299 298 297 295 294 294 295 295 296 296 295 294 292 284 280 275 276 272 266 267 271 273 275 275 274
314 306 302 298 296 296 293 295 296 297 298 298 297 295 288 290 295 297 300 301 300 296 294 296 295 290 290 291 287 291 299 302 292 287 285 283 279 273 273 277 279 280 280 280
312 304 299 295 291 292 296 296 295 295 296 297 297 293 288 288 292 293 294 295 296 295 291 290 292 293 291 287 283 286 297 302 298 294 293 290 288 282 280 284 287 289 289 287
308 301 295 289 286 288 287 290 290 289 289 289 289 287 288 289 287 286 288 290 293 293 287 288 294 295 294 292 289 286 291 295 296 295 296 296 296 293 290 292 294 294 294 293
301 298 292 286 283 284 284 282 282 282 280 279 281 281 282 284 284 282 284 283 284 284 281 284 290 294 294 293 289 289 292 292 292 293 295 296 295 295 296 296 297 297 297 296
297 294 291 286 281 281 280 278 276 275 274 274 275 278 280 281 281 279 276 274 274 278 279 280 284 287 290 292 291 291 293 293 292 293 294 295 295 295 296 297 298 299 299 299
294 291 289 285 281 279 276 274 271 270 270 271 273 275 277 279 278 275 273 271 270 273 274 277 280 284 286 287 288 290 292 293 294 293 292 293 294 295 296 297 298 299 299 300
289 287 284 284 283 279 274 271 269 267 267 268 268 269 270 270 271 272 273 273 271 271 271 273 276 279 283 285 288 290 292 293 293 292 290 290 292 295 297 299 300 301 301 302
286 283 282 281 282 277 274 271 268 268 268 267 266 266 267 268 269 270 271 272 270 270 269 270 273 277 281 285 287 289 290 291 291 290 290 291 293 295 297 299 301 302 303 304
285 284 284 282 279 275 272 270 268 268 267 267 267 266 267 268 268 268 268 268 269 269 269 269 271 274 278 282 286 288 289 289 289 290 290 292 293 295 298 299 301 302 302 303
285 285 284 283 279 277 274 270 268 267 267 266 264 265 266 266 267 268 268 267 268 270 269 269 271 274 277 281 283 286 286 286 286 287 289 291 293 296 298 299 301 302 303 303
Height
5678 5680 5681 5683 5686 5688 5690 5692 5694 5696 5698 5701 5703 5706 5708 5710 5712 5714 5716 5717 5719 5720 5721 5722 5724 5725 5726 5727 5728 5728 5728 5729 5729 5731 5732 5734 5736 5738 5741 5744 5746 5749 5751 5754
5679 5680 5681 5682 5684 5685 5687 5689 5690 5692 5694 5697 5699 5701 5703 5704 5706 5708 5709 5711 5712 5713 5714 5715 5716 5717 5718 5719 5719 5719 5719 5719 5719 5720 5721 5723 5724 5727 5730 5733 5735 5738 5741 5743
5680 5681 5681 5682 5683 5684 5685 5686 5688 5689 5691 5692 5695 5697 5699 5700 5701 5702 5703 5704 5705 5706 5707 5708 5709 5709 5710 5711 5711 5710 5710 5710 5710 5710 5711 5712 5714 5717 5720 5722 5725 5727 5730 5733
5680 5680 5681 5681 5682 5683 5684 5684 5685 5687 5688 5689 5692 5693 5695 5695 5696 5697 5698 5698 5699 5700 5700 5700 5701 5701 5702 5702 5702 5701 5701 5700 5700 5701 5701 5703 5705 5707 5709 5712 5714 5717 5720 5722
5681 5681 5681 5681 5682 5682 5682 5683 5684 5684 5685 5687 5688 5689 5691 5691 5691 5692 5692 5692 5693 5693 5693 5693 5694 5694 5694 5694 5693 5693 5692 5692 5692 5692 5693 5694 5695 5697 5699 5701 5703 5706 5709 5711
5682 5682 5681 5681 5681 5681 5682 5682 5682 5682 5683 5685 5685 5685 5686 5686 5687 5687 5687 5687 5687 5687 5687 5687 5687 5686 5686 5685 5685 5684 5684 5683 5683 5684 5684 5685 5686 5687 5689 5691 5693 5696 5698 5700
5683 5683 5682 5682 5681 5681 5682 5682 5682 5681 5681 5682 5682 5681 5683 5682 5682 5682 5682 5681 5681 5681 5680 5680 5680 5679 5678 5677 5677 5676 5676 5676 5676 5676 5676 5677 5678 5679 5680 5682 5684 5686 5688 5689
5685 5684 5683 5682 5682 5681 5681 5681 5682 5681 5680 5679 5679 5678 5680 5679 5678 5677 5677 5676 5676 5675 5675 5674 5673 5672 5671 5670 5669 5668 5668 5668 5668 5668 5668 5669 5670 5671 5672 5673 5675 5676 5677 5678
5686 5685 5683 5682 5681 5681 5680 5680 5680 5679 5678 5677 5676 5676 5676 5675 5674 5673 5672 5672 5671 5670 5669 5668 5667 5666 5664 5663 5662 5661 5660 5660 5660 5660 5661 5661 5662 5663 5664 5665 5666 5667 5668 5669
5687 5686 5684 5683 5682 5681 5681 5679 5679 5678 5676 5675 5674 5673 5673 5671 5670 5669 5668 5667 5666 5665 5664 5662 5661 5660 5658 5657 5656 5655 5654 5654 5653 5653 5653 5654 5654 5655 5656 5657 5658 5659 5660 5660
5687 5686 5685 5683 5682 5681 5680 5679 5677 5676 5674 5673 5671 5673 5670 5668 5666 5665 5664 5663 5662 5661 5659 5658 5656 5655 5653 5651 5650 5649 5648 5647 5647 5647 5647 5648 5648 5649 5650 5651 5652 5652 5652 5653
5688 5687 5685 5683 5682 5679 5678 5677 5676 5675 5673 5670 5669 5672 5667 5665 5663 5662 5660 5659 5658 5657 5655 5653 5652 5650 5648 5647 5645 5644 5643 5642 5642 5642 5642 5642 5642 5643 5644 5645 5646 5646 5646 5646
5688 5686 5684 5683 5683 5680 5677 5675 5673 5672 5670 5668 5667 5669 5664 5662 5660 5659 5657 5656 5654 5653 5651 5650 5648 5646 5644 5642 5641 5639 5638 5638 5637 5637 5637 5637 5637 5638 5639 5640 5640 5640 5639 5640
5686 5684 5683 5682 5679 5677 5676 5674 5672 5670 5668 5667 5665 5664 5663 5659 5658 5656 5654 5653 5651 5650 5648 5646 5645 5643 5641 5639 5637 5636 5635 5634 5634 5633 5633 5633 5633 5634 5634 5634 5634 5634 5634 5634
5684 5683 5680 5679 5677 5675 5673 5672 5669 5667 5666 5664 5663 5661 5660 5657 5656 5654 5652 5650 5648 5646 5645 5643 5641 5640 5638 5636 5635 5634 5633 5632 5631 5631 5630 5630 5630 5630 5630 5630 5630 5629 5629 5629
5681 5680 5678 5677 5674 5672 5671 5669 5667 5665 5663 5661 5659 5659 5657 5655 5653 5651 5649 5647 5645 5644 5642 5640 5638 5637 5635 5634 5633 5632 5631 5630 5629 5628 5628 5627 5627 5626 5626 5626 5625 5625 5624 5624
5678 5676 5675 5673 5671 5670 5668 5666 5664 5662 5660 5658 5656 5656 5654 5653 5651 5649 5647 5645 5643 5641 5639 5638 5636 5634 5633 5632 5631 5630 5629 5628 5627 5626 5625 5624 5624 5623 5623 5623 5622 5621 5620 5619
5675 5672 5671 5670 5669 5667 5668 5663 5661 5659 5657 5655 5653 5652 5651 5649 5648 5646 5644 5642 5640 5638 5637 5635 5634 5632 5631 5630 5629 5628 5627 5626 5625 5624 5623 5622 5621 5620 5620 5619 5618 5616 5615 5613
5671 5669 5667 5666 5664 5663 5663 5660 5657 5655 5655 5652 5650 5649 5647 5646 5645 5643 5641 5639 5637 5636 5634 5633 5632 5630 5629 5628 5627 5626 5625 5624 5623 5622 5620 5619 5618 5617 5616 5615 5613 5612 5610 5608
5667 5665 5663 5661 5658 5658 5659 5655 5652 5652 5651 5649 5647 5645 5644 5642 5641 5640 5638 5636 5635 5633 5632 5631 5629 5628 5627 5625 5624 5623 5622 5621 5620 5619 5617 5616 5615 5613 5612 5610 5609 5607 5605 5603
5661 5659 5657 5654 5652 5653 5652 5649 5647 5647 5647 5644 5642 5641 5640 5638 5637 5636 5634 5633 5632 5630 5629 5628 5627 5625 5624 5622 5621 5620 5618 5617 5616 5614 5613 5611 5610 5609 5607 5605 5604 5602 5600 5597
5655 5652 5651 5648 5647 5649 5645 5643 5641 5641 5639 5638 5637 5636 5635 5634 5632 5631 5630 5628 5627 5627 5626 5625 5624 5622 5621 5619 5618 5616 5614 5613 5611 5610 5608 5607 5605 5603 5602 5600 5598 5596 5593 5591
5647 5645 5643 5642 5643 5640 5637 5635 5633 5632 5632 5632 5631 5630 5629 5629 5627 5626 5625 5624 5622 5621 5621 5620 5619 5618 5616 5615 5613 5612 5610 5608 5607 5605 5603 5602 5600 5598 5596 5594 5592 5589 5586 5583
5639 5636 5634 5633 5634 5631 5628 5626 5625 5624 5624 5624 5624 5623 5623 5622 5622 5620 5619 5618 5617 5616 5615 5614 5613 5612 5611 5609 5608 5606 5605 5603 5601 5599 5598 5596 5594 5592 5590 5587 5585 5582 5579 5575
5629 5626 5624 5623 5623 5620 5619 5617 5616 5615 5615 5615 5615 5615 5615 5615 5614 5613 5612 5611 5610 5609 5608 5608 5607 5606 5605 5603 5602 5600 5599 5597 5595 5593 5591 5589 5587 5585 5583 5580 5577 5574 5570 5566
5619 5615 5613 5612 5610 5607 5608 5607 5606 5605 5605 5605 5605 5606 5606 5606 5606 5605 5604 5604 5603 5602 5601 5600 5599 5599 5597 5596 5595 5593 5591 5590 5588 5586 5584 5582 5580 5577 5575 5572 5569 5565 5561 5557